Tracking 22993 objects as of 10-May-2021
HD Live streaming from Space Station
objects crossing your sky now

SL-19 DEB

Track SL-19 DEB now!
10-day predictions


NORAD ID: 23564
Int'l Code: 1994-085V
Perigee: 1,840.4 km
Apogee: 2,147.0 km
Inclination: 65.0 °
Period: 126.9 minutes
Semi major axis: 8364 km
RCS: 0.0721 m2 (small)
Launch date: December 26, 1994
Source: Commonwealth of Independent States (former USSR) (CIS)
Launch site: TYURATAM MISSILE AND SPACE COMPLEX (TTMTR)

Note: This is SATELLITE DEBRIS
aabbcc
Your satellite tracking list
Your tracking list is empty




NASA's NSSDC Master Catalog

Two Line Element Set (TLE):
1 23564U 94085V   21128.48230821 -.00000020  00000-0  59696-3 0  9999
2 23564  64.9945 309.9224 0183261 106.3738 285.3832 11.34822712 76451
Source of the keplerian elements: AFSPC